Theta_e
300 300 299 299 298 299 300 301 302 304 303 302 301 301 302 300 300 300 298 297 296 295 295 295 295 295 296 296 296 295 295 293 293 293 293 292 291 291 289 289 289 287 285 284 284 283 283 283 282 281 282 281 280 280 280 280 279 279 278 278 278 278 279 277 276 275 278 277 278 278 278 278 277 277 277 277 276 278 281 277 276 277 277 277 277
300 300 298 299 298 299 299 300 302 303 302 302 301 301 301 300 300 298 297 296 295 295 294 294 294 295 295 295 295 295 295 294 293 293 292 291 290 290 289 289 289 287 285 284 283 283 283 282 281 281 281 281 280 279 280 279 280 279 278 278 278 278 277 277 276 277 277 276 276 277 277 278 277 276 276 276 276 276 276 277 277 276 276 276 276
300 299 298 298 298 298 298 298 299 300 300 301 300 300 299 299 298 297 296 294 293 294 294 293 294 294 294 294 294 294 294 293 292 292 292 291 290 289 289 289 288 286 285 284 283 282 282 282 281 280 281 280 279 279 279 279 280 279 278 278 278 278 277 277 277 276 276 276 276 276 276 276 276 275 276 276 277 277 276 275 276 277 278 277 276
299 298 297 296 296 296 296 296 295 297 298 300 299 299 298 298 296 297 295 293 292 292 293 293 293 293 293 293 293 293 292 292 291 292 292 291 290 289 289 289 288 287 286 284 282 282 282 281 280 280 280 279 279 279 279 279 279 279 278 278 278 277 277 277 277 275 275 276 275 276 276 275 276 274 276 276 276 275 275 275 275 275 276 277 277
298 298 295 294 292 293 293 294 295 295 297 298 298 298 297 297 296 296 295 292 292 291 291 292 292 292 292 292 291 291 291 291 290 290 291 291 290 289 288 288 288 287 286 284 283 282 282 281 281 280 280 279 278 278 278 278 278 278 278 278 277 277 278 277 276 276 277 277 275 275 275 275 276 275 275 275 275 274 273 274 275 275 275 276 277
297 297 295 293 293 292 293 293 294 295 296 297 298 298 297 296 295 295 295 293 291 291 291 290 291 291 291 291 291 291 291 290 290 290 290 290 289 289 288 287 287 286 285 283 282 282 282 281 281 280 280 279 279 278 278 278 278 278 278 278 277 277 277 277 277 277 277 276 275 274 274 274 273 274 274 275 274 273 273 274 274 274 274 274 275
297 297 295 293 293 293 293 293 294 294 294 295 296 297 296 296 295 294 294 294 292 291 290 290 290 290 290 290 290 290 290 289 290 290 289 289 289 288 287 287 286 285 284 282 282 282 282 281 280 280 280 280 279 279 278 278 278 278 278 278 277 277 277 277 277 276 276 275 274 274 274 274 274 274 274 274 274 274 274 273 273 274 274 274 274
295 295 294 294 294 294 293 293 293 293 293 294 294 294 295 295 294 294 293 293 292 291 290 290 289 290 290 290 290 289 289 289 289 289 289 288 288 287 287 286 285 283 282 282 282 281 281 281 281 280 281 280 280 279 279 278 279 278 278 278 277 277 277 277 277 276 275 274 274 273 273 273 273 273 273 273 272 272 274 273 273 273 273 274 274
294 295 294 294 295 295 293 292 292 292 292 292 292 293 293 293 293 293 292 292 292 292 291 290 289 289 289 289 289 289 288 288 288 288 288 287 287 286 286 285 284 283 282 281 281 281 280 280 280 280 281 282 283 282 282 282 279 278 278 278 277 277 277 277 277 276 275 275 274 273 272 272 274 273 272 272 273 274 273 274 273 273 273 273 273
294 294 295 295 296 294 292 291 291 291 291 291 291 292 291 291 291 291 291 292 292 291 290 290 289 289 289 288 288 288 288 288 287 288 288 287 286 286 285 284 283 283 282 280 279 280 280 280 281 282 282 282 283 283 284 284 283 281 279 278 278 278 278 277 276 276 276 274 274 273 272 273 273 274 274 275 275 274 272 272 272 272 272 272 272
294 295 295 296 296 293 291 291 291 291 291 291 291 290 290 290 290 290 290 290 291 290 290 289 289 289 288 288 287 287 287 287 288 290 290 289 286 285 284 284 283 282 281 280 279 279 279 279 280 281 282 282 282 284 285 285 284 284 284 283 282 280 278 277 277 276 275 275 275 273 273 274 275 275 275 275 274 274 273 272 273 272 272 269 271
294 295 296 295 294 293 292 291 290 291 291 291 290 289 289 289 290 290 289 289 289 289 289 289 289 288 288 287 287 287 287 287 289 290 290 290 288 285 284 283 282 282 281 280 280 279 279 279 279 280 280 281 281 282 284 285 285 285 285 285 284 284 284 280 278 276 275 274 273 274 274 275 275 275 275 274 274 273 273 273 273 272 272 271 271
294 295 295 294 294 293 292 291 291 290 290 290 290 289 288 289 289 289 289 289 289 288 288 288 288 288 287 286 286 286 286 288 289 289 290 290 289 286 284 284 282 282 281 280 280 279 279 279 279 279 280 282 282 281 282 283 285 285 284 284 284 285 285 286 285 280 278 276 275 274 275 276 275 276 276 274 276 273 272 272 272 272 272 272 272
293 294 294 294 294 293 291 290 290 290 290 289 289 288 288 288 289 289 289 288 288 288 288 287 287 287 287 286 286 286 285 286 289 289 289 290 290 288 284 283 282 282 281 281 280 279 279 279 278 279 279 281 281 281 281 282 283 283 283 282 281 283 285 286 286 284 281 278 277 276 277 277 277 276 276 278 274 272 272 272 271 271 271 272 273
292 293 293 294 293 292 291 290 290 290 289 289 288 288 288 288 288 288 288 288 288 287 287 287 287 287 286 286 286 285 285 287 288 289 289 290 290 288 284 283 282 282 281 280 280 279 279 279 279 279 279 280 280 281 281 282 282 282 282 281 281 281 281 282 282 282 280 278 278 278 278 277 278 276 275 276 276 275 275 274 273 273 271 269 267
292 292 293 293 292 292 291 291 290 289 289 288 288 288 288 288 288 288 288 288 287 287 287 287 287 286 286 286 285 285 285 287 288 289 289 290 290 287 283 282 281 281 280 280 279 279 279 280 280 279 279 280 282 284 283 282 281 281 280 280 280 280 280 282 284 284 282 279 278 278 277 276 279 276 275 274 274 273 273 270 269 269 268 267 270
291 292 292 293 292 292 291 291 290 289 288 288 287 288 288 287 288 287 287 287 287 286 286 286 286 286 286 285 285 285 284 286 288 288 289 290 289 286 283 282 281 280 280 279 279 279 279 279 280 280 279 279 283 285 285 283 280 279 279 279 279 278 279 279 283 284 285 285 284 284 283 283 283 283 283 283 280 275 270 269 269 266 267 268 270
292 292 292 292 292 292 291 290 289 288 287 287 287 288 288 287 287 287 287 287 286 286 286 286 286 286 285 285 285 284 285 285 287 288 289 289 288 285 282 281 280 280 279 279 279 278 279 281 281 279 279 279 285 286 286 282 279 279 279 278 277 277 277 278 278 279 283 284 285 285 285 285 285 285 285 284 284 281 272 272 268 267 268 267 268
291 291 292 293 292 291 290 289 289 288 287 287 287 287 287 287 287 286 286 286 286 286 286 286 285 285 285 285 285 285 285 285 287 288 289 289 288 285 282 281 280 279 279 278 278 278 278 281 281 281 280 281 286 286 286 282 280 279 279 278 278 277 277 278 277 276 276 277 279 280 281 283 282 281 280 285 285 283 275 274 270 269 269 268 268
292 291 291 290 290 289 289 288 288 288 288 287 287 287 287 285 285 285 285 285 286 286 285 285 285 284 285 284 284 284 284 284 285 287 288 289 289 284 282 280 279 279 279 278 278 278 278 279 282 284 284 285 286 287 286 284 281 280 280 279 278 278 278 276 277 277 276 276 276 277 277 276 276 277 276 277 279 278 276 274 273 272 272 273 272
289 289 289 288 288 288 288 288 288 288 288 287 287 286 285 285 284 284 284 284 284 284 284 284 284 284 284 284 284 284 284 283 284 287 288 289 289 284 282 281 280 279 279 279 278 278 278 279 280 284 285 286 287 287 287 286 284 281 280 279 279 279 278 275 276 279 275 274 273 272 271 270 270 271 272 272 273 273 274 276 274 274 274 273 273
288 287 287 287 288 287 287 288 288 288 287 286 285 285 284 285 284 284 284 283 283 283 284 284 284 284 283 283 283 283 283 283 283 285 287 288 289 286 282 281 281 280 279 279 279 278 278 279 279 283 286 287 287 287 287 287 287 283 281 283 283 283 278 275 274 274 273 271 270 269 267 267 268 267 267 268 269 272 273 274 276 276 276 275 274
286 287 287 287 287 287 287 287 287 287 286 286 285 284 283 283 283 283 283 283 283 283 283 283 283 282 281 281 282 282 282 282 284 285 286 288 287 285 284 283 284 282 280 279 279 279 279 279 280 283 286 286 286 287 287 287 287 285 284 284 284 284 281 274 272 272 270 270 269 269 268 267 267 266 267 268 270 271 273 275 276 276 277 277 277
285 285 286 286 286 286 286 286 286 286 285 285 285 284 282 283 282 283 283 283 283 283 283 283 282 281 280 280 280 280 281 282 283 284 285 287 287 286 285 284 285 282 282 280 280 280 280 279 281 284 286 286 286 286 286 286 285 287 286 285 284 284 280 275 272 272 271 269 269 268 268 267 268 268 269 270 272 273 274 275 275 276 276 277 277
283 285 285 284 284 284 283 284 284 284 284 285 284 283 282 282 282 282 283 283 283 283 282 282 282 281 280 279 279 279 280 281 282 284 285 286 286 286 285 285 285 285 282 282 282 281 282 283 284 285 285 285 286 286 286 286 286 287 287 286 284 281 279 276 274 272 271 271 271 271 271 271 271 271 272 273 274 275 274 274 275 275 275 274 273
282 283 283 282 282 281 281 280 281 282 283 284 284 284 283 283 283 283 283 283 283 283 282 281 281 281 280 279 279 279 279 279 281 283 284 285 285 286 285 285 285 285 283 283 283 285 285 285 285 285 285 285 284 284 283 283 285 285 285 284 281 279 278 276 274 273 273 273 273 274 274 275 274 275 275 275 274 273 274 273 273 272 272 272 271
282 281 280 279 277 278 281 280 280 280 281 281 282 283 283 283 283 283 283 283 283 282 282 281 281 280 279 279 278 278 278 279 280 281 283 284 284 285 284 284 285 284 283 283 284 284 285 284 284 284 284 284 284 283 283 282 282 283 281 280 277 278 277 277 276 276 276 276 276 276 276 275 275 275 274 274 274 273 274 273 272 272 271 270 269
281 279 278 276 277 277 279 279 280 280 281 282 282 281 282 283 283 283 283 283 282 282 281 281 280 280 279 279 278 278 277 278 279 280 281 283 283 284 284 283 283 283 283 283 283 283 283 283 284 283 282 282 281 279 279 279 279 278 277 276 277 277 278 279 279 278 277 277 275 274 272 272 273 274 273 273 273 272 272 272 271 271 270 268 267
278 276 276 276 276 278 278 279 280 280 279 279 280 282 282 283 283 284 285 285 284 283 282 282 281 281 281 279 278 277 277 277 278 281 281 283 283 283 283 283 283 283 283 284 282 281 281 281 280 279 279 278 277 277 277 276 276 277 277 277 276 276 276 276 276 276 275 275 275 276 275 274 273 272 272 272 271 271 271 271 271 270 269 268 266
276 275 275 276 276 277 277 277 277 278 279 279 279 279 281 285 285 284 283 284 284 285 285 282 282 282 281 281 280 278 278 279 281 282 283 284 284 284 284 284 285 283 284 285 282 280 280 279 279 278 277 277 277 276 276 276 276 276 277 278 277 277 276 276 276 277 277 277 277 277 276 273 272 271 271 271 270 270 270 271 269 269 267 267 266
277 277 277 276 278 278 278 277 277 276 277 278 278 279 280 282 284 284 284 284 284 284 285 284 284 284 282 281 282 282 282 282 282 283 283 283 284 284 284 284 285 285 285 283 280 279 278 277 277 277 277 277 277 276 276 276 276 276 276 277 278 277 277 276 277 277 277 277 276 275 275 274 272 271 270 270 269 269 268 269 268 267 267 266 266
279 278 278 277 278 278 276 276 277 278 277 278 279 280 280 278 280 283 284 284 284 284 284 284 284 284 284 283 281 281 283 283 283 283 283 283 283 283 284 284 285 285 285 284 278 277 277 277 276 276 276 275 276 275 275 275 274 275 275 276 276 277 276 276 276 276 276 275 274 273 273 273 273 271 270 270 269 268 267 266 267 266 266 266 265
278 276 278 277 278 279 279 279 280 280 279 279 279 279 279 279 278 278 282 284 284 284 284 284 284 284 284 284 284 282 282 283 283 283 283 283 283 283 283 284 284 285 285 280 277 276 276 276 275 275 275 275 274 273 273 273 273 273 274 275 275 275 275 275 275 272 272 272 270 269 269 269 268 268 268 269 269 268 267 266 266 266 265 264 264
278 279 279 279 280 280 280 280 280 280 280 280 279 279 279 279 279 279 278 279 280 283 284 284 284 284 284 284 284 283 283 283 283 283 283 283 283 283 283 282 284 285 283 278 276 275 275 274 274 273 273 273 273 272 272 272 272 272 272 272 272 271 271 270 270 270 268 269 269 267 267 267 267 268 268 268 269 268 267 266 266 265 264 264 262
280 278 277 279 281 281 280 280 280 280 280 279 279 279 278 278 278 278 278 277 277 277 278 280 283 284 283 283 283 284 284 283 283 283 282 282 283 283 283 280 279 280 279 274 275 274 273 273 273 273 272 272 272 272 272 271 271 272 272 271 270 270 268 268 269 269 269 267 266 266 266 266 266 267 268 268 267 267 267 266 265 265 263 262 261
281 280 280 280 280 280 280 280 280 280 280 279 279 279 278 277 277 277 277 277 277 276 276 277 278 281 282 283 284 284 283 283 283 282 282 283 283 283 278 277 277 277 275 274 273 273 273 273 273 272 272 272 272 272 272 272 272 272 272 271 270 269 269 268 269 268 268 269 269 267 266 264 264 264 264 267 267 267 266 264 263 262 263 262 262
280 280 279 279 280 280 280 280 280 280 280 279 279 278 277 277 276 277 276 276 276 276 276 276 277 277 279 278 281 282 283 282 282 282 282 282 283 280 276 277 276 276 275 274 273 274 273 273 273 273 273 273 273 273 273 273 273 273 274 272 271 270 269 268 268 267 267 267 267 267 267 266 264 263 264 265 265 264 264 264 264 264 264 264 265
281 280 280 279 279 279 279 279 279 279 279 278 279 278 277 276 276 276 275 275 275 274 274 275 276 276 276 277 280 279 280 282 282 282 282 282 280 276 275 276 276 276 275 275 275 274 274 274 274 274 274 274 274 274 274 274 274 274 273 273 272 271 272 270 270 268 267 266 265 264 264 263 262 263 264 265 265 265 264 265 265 264 265 266 265
279 279 279 279 280 279 279 278 277 278 277 278 278 277 276 276 275 275 275 274 274 274 274 275 275 275 276 277 277 279 279 278 277 277 278 279 279 277 275 275 275 275 276 276 276 275 275 275 275 275 275 275 275 275 275 274 274 274 274 274 273 272 273 270 269 268 266 265 264 262 263 262 262 263 265 265 265 265 264 264 264 264 264 264 264
278 278 278 279 278 278 277 277 277 277 277 277 277 277 276 275 276 275 275 274 273 273 274 274 274 275 275 276 277 278 277 276 277 277 277 278 277 277 276 274 274 274 275 275 276 276 276 276 276 276 276 275 275 275 275 274 274 274 274 274 273 272 272 271 270 268 267 266 264 262 262 262 262 263 264 264 264 264 263 263 263 263 263 262 262
277 277 275 278 277 277 275 276 276 277 276 276 276 276 276 275 275 275 275 274 273 272 273 273 274 273 273 274 278 278 276 276 276 276 276 276 276 276 276 276 275 274 274 274 274 275 275 274 274 275 274 274 274 274 274 274 274 274 273 273 273 272 272 271 271 269 269 267 266 265 265 265 265 265 264 264 265 263 262 263 262 262 262 261 261
276 276 276 275 275 275 274 274 274 273 275 274 275 275 274 274 274 274 273 272 271 271 271 270 269 269 272 276 277 278 274 272 274 273 273 274 274 274 272 272 272 273 274 273 273 272 272 272 271 272 271 271 271 270 270 271 271 272 272 272 271 271 271 271 270 269 269 268 268 267 267 266 265 265 264 265 260 261 262 262 261 260 259 259 259
274 275 274 273 274 274 274 273 273 273 273 273 272 270 271 272 271 270 270 269 269 269 268 267 266 268 272 275 276 276 270 270 270 271 270 270 269 267 266 265 264 264 264 264 265 269 271 270 269 269 269 269 269 269 269 269 269 269 269 269 269 269 269 268 268 268 268 267 267 266 265 265 265 262 260 260 260 260 260 260 260 259 258 258 257
272 272 272 271 271 271 271 272 271 270 270 268 268 269 268 268 268 268 269 269 268 267 267 266 266 267 269 272 271 268 267 266 266 266 265 264 264 263 262 261 261 262 262 261 261 262 265 265 264 262 262 262 262 263 264 264 266 267 267 267 266 266 266 266 266 266 266 265 264 263 262 261 261 260 260 260 259 258 257 256 257 258 257 255 255
272 271 270 270 269 269 268 267 267 267 267 268 268 267 266 267 267 267 267 267 265 265 264 264 265 266 266 266 265 264 263 262 261 261 260 260 259 259 259 259 259 259 259 259 258 258 259 259 259 259 258 258 258 259 259 259 259 260 261 263 263 263 262 262 262 260 261 262 260 258 257 257 257 256 257 258 258 257 257 255 255 258 256 256 255
270 269 269 268 267 267 267 267 266 267 267 267 267 266 265 265 265 265 264 264 263 263 263 263 264 266 266 266 264 263 262 260 259 259 258 258 258 257 255 255 255 255 254 254 254 255 254 255 256 255 255 254 254 254 254 254 254 253 253 254 256 257 256 255 254 255 256 256 256 256 256 255 254 255 256 254 254 254 254 253 253 254 255 255 254
269 268 267 267 266 266 265 266 266 265 265 265 264 264 264 264 263 263 262 262 262 262 262 263 264 265 265 265 264 262 261 261 261 260 259 258 257 257 256 255 255 255 254 254 253 254 254 254 254 254 254 253 253 253 252 251 251 251 252 250 250 251 250 251 252 252 251 252 254 254 254 255 254 254 255 254 254 254 254 254 253 253 252 254 254
266 266 265 265 265 265 265 264 264 263 263 263 263 263 262 262 262 262 262 262 262 262 262 262 262 262 262 262 261 261 260 260 260 259 259 258 258 257 256 256 255 255 254 254 253 253 253 253 253 253 254 254 254 253 253 252 251 252 251 251 250 250 252 254 250 250 251 251 250 251 252 253 252 253 253 254 253 253 253 253 253 253 252 253 254
265 265 264 264 264 264 264 263 263 263 262 262 262 261 261 261 261 261 261 261 261 261 261 261 260 260 260 260 259 259 259 259 259 259 258 258 257 256 255 255 255 255 255 254 254 253 253 253 253 253 253 253 253 253 252 252 252 251 251 249 252 257 256 255 253 250 253 251 250 250 251 251 252 252 253 252 254 254 254 253 253 254 253 254 254
263 263 263 263 262 262 262 262 262 262 262 262 261 261 261 260 260 260 260 260 260 260 260 260 260 260 259 259 259 259 259 258 258 258 257 257 256 256 255 255 255 255 255 254 254 254 253 252 252 252 252 252 252 252 252 253 252 253 251 250 258 258 258 257 256 255 253 249 251 251 252 251 250 251 251 253 253 254 255 254 254 254 253 253 253
261 262 262 262 262 262 262 262 262 262 261 261 261 261 260 260 260 260 260 260 260 260 260 260 260 259 259 259 258 259 258 259 258 258 258 257 256 256 255 254 254 254 253 253 253 252 253 253 253 253 252 253 252 253 252 252 251 250 254 257 258 258 258 258 255 257 256 253 249 250 251 252 250 250 250 251 252 252 254 253 253 253 252 252 252
Wind_Speed
10 10 9 10 9 11 11 10 11 10 9 10 10 11 10 11 11 10 8 10 9 10 10 11 11 11 12 11 12 11 11 10 8 10 10 10 10 10 10 12 13 10 9 9 8 11 11 11 10 9 9 10 7 7 7 7 6 6 6 7 6 5 7 6 7 3 1 2 4 4 5 6 5 5 5 5 4 4 5 4 3 3 3 6 6
11 9 8 9 11 11 10 9 10 10 11 10 11 10 10 10 10 9 10 10 10 11 12 11 11 12 12 12 12 12 12 12 11 11 12 12 11 9 11 12 11 12 11 12 10 9 11 12 10 9 8 10 9 7 8 8 7 7 6 7 7 7 4 6 4 6 6 1 3 2 4 5 6 4 8 6 6 4 5 5 3 4 5 6 6
8 8 9 10 12 11 10 10 9 11 12 11 11 10 9 9 9 11 11 9 9 10 11 11 12 12 12 12 12 12 13 12 11 12 12 14 14 12 13 14 14 14 13 13 13 11 11 11 12 10 7 9 9 9 8 8 7 8 8 6 7 6 4 4 5 4 7 5 4 5 5 5 6 5 6 5 5 6 6 5 4 4 5 6 6
8 8 9 10 10 10 11 10 10 11 12 11 12 11 9 9 9 10 10 9 11 9 10 11 11 12 13 12 12 12 12 12 12 12 14 15 14 15 14 15 14 14 15 15 13 13 13 12 12 12 11 11 9 8 7 7 8 7 8 6 6 6 5 4 4 5 5 7 5 7 6 6 5 2 4 4 5 5 5 4 3 4 5 6 6
8 8 8 9 8 10 10 10 12 13 13 11 12 11 10 10 9 11 9 9 10 10 10 10 11 12 12 13 12 12 13 13 14 13 12 13 14 15 15 15 15 15 15 15 15 14 14 14 14 12 12 12 10 9 9 10 8 8 8 6 6 5 4 5 5 4 6 7 5 4 4 4 3 3 5 6 5 4 3 4 5 6 6 6 5
9 9 9 10 10 11 11 10 13 14 13 12 13 12 10 10 10 9 10 11 10 10 11 10 11 12 12 12 12 12 12 13 15 15 15 14 14 13 13 14 15 15 14 14 14 14 15 14 14 14 13 14 13 11 10 11 8 8 8 7 6 5 6 4 4 5 5 5 6 4 3 5 3 3 5 7 6 4 4 5 4 5 5 6 6
10 10 10 10 11 13 13 13 12 11 12 11 10 11 12 11 10 11 9 10 11 11 10 11 10 11 12 11 12 12 11 11 12 12 12 13 14 14 14 13 12 11 11 12 13 13 14 14 15 15 15 14 15 14 12 10 9 10 9 9 7 7 7 6 6 5 5 5 3 4 5 3 4 5 4 6 5 5 6 4 6 5 6 6 7
9 10 10 11 13 14 13 11 10 11 9 9 10 10 11 11 11 9 9 12 12 12 13 12 10 10 11 11 12 11 11 10 10 12 12 12 12 13 14 13 13 11 10 11 13 14 14 15 16 16 16 15 15 14 14 12 9 9 7 7 8 8 7 6 6 6 5 4 5 6 4 5 3 2 1 3 2 5 6 7 8 6 5 4 5
9 11 11 12 15 14 10 9 9 9 9 9 10 11 11 10 10 10 11 11 10 12 12 12 12 12 11 12 11 10 11 12 12 12 13 13 12 13 13 13 13 13 13 13 12 12 12 12 14 14 15 16 18 17 15 13 12 10 8 8 9 8 7 5 5 5 4 4 4 2 3 5 6 5 5 5 8 11 3 6 7 5 3 3 4
11 11 12 14 14 10 9 9 10 9 10 12 11 10 10 10 10 11 12 12 11 11 11 11 12 13 13 12 11 11 11 10 14 19 16 14 14 12 12 13 13 13 13 12 11 11 12 11 11 17 17 18 18 19 18 18 17 14 13 11 10 8 8 7 6 6 6 6 7 5 5 7 8 8 7 8 5 1 2 4 5 3 1 4 3
11 11 14 14 12 8 9 10 9 11 12 10 10 10 11 10 11 12 12 11 12 11 10 11 12 12 12 13 13 12 11 11 18 20 21 20 14 14 15 15 14 13 12 13 13 13 11 10 9 13 14 15 16 19 18 18 16 14 12 14 12 13 10 8 8 7 8 8 6 5 6 8 9 6 7 6 4 6 5 3 6 3 4 3 7
12 13 14 11 10 11 11 10 10 12 10 12 11 10 9 11 12 13 12 12 12 9 11 14 12 11 11 11 13 13 12 14 19 21 22 24 21 15 12 12 14 14 14 14 13 13 13 12 10 9 10 13 13 14 16 18 17 15 15 15 13 12 14 12 10 7 8 8 7 9 7 9 7 5 6 4 7 4 4 4 5 6 6 5 5
12 12 12 11 12 11 10 11 12 11 11 11 9 9 11 11 13 13 14 12 9 12 14 12 13 12 12 14 14 13 11 15 19 21 22 22 22 16 13 14 15 15 14 14 14 14 12 12 11 10 10 17 14 12 12 12 14 15 15 16 15 14 13 13 11 13 11 9 9 8 10 8 6 8 7 5 4 5 4 4 5 6 6 6 8
11 12 11 12 13 11 10 10 11 12 10 9 10 11 12 14 13 11 10 10 13 13 12 14 12 13 14 14 13 12 12 15 22 24 25 24 24 20 14 15 15 15 16 15 13 14 15 14 13 12 10 12 11 12 11 11 10 9 9 9 9 12 14 15 13 10 10 11 10 10 11 7 9 5 5 5 5 5 5 6 5 5 6 9 4
9 11 12 13 11 10 10 11 12 11 10 10 11 12 13 12 12 12 11 12 13 13 13 12 12 12 13 12 12 12 12 19 23 24 23 24 24 21 12 12 13 14 14 14 14 15 15 14 15 15 14 13 11 14 13 12 10 9 9 8 9 9 9 9 10 9 8 7 8 10 7 6 6 3 4 6 7 6 6 7 7 6 3 0 1
10 10 13 12 11 10 11 11 12 11 11 10 11 13 13 13 13 10 9 9 9 9 9 11 13 13 12 11 12 13 12 19 22 24 25 24 25 15 10 10 11 12 13 12 11 11 12 13 13 13 13 13 13 16 13 11 11 11 10 8 7 6 8 8 6 6 8 7 7 7 4 3 5 5 5 5 4 3 2 2 2 1 0 3 7
11 13 13 10 10 11 12 12 12 11 10 11 13 13 13 12 10 8 10 10 10 11 11 11 10 10 12 12 13 12 11 16 22 24 25 27 21 13 11 9 8 8 10 11 10 10 10 10 10 11 12 12 15 17 16 13 10 11 9 9 7 6 8 6 7 10 10 10 10 9 8 8 9 10 10 10 8 5 4 2 5 3 2 6 8
13 11 10 11 12 11 11 11 11 11 10 13 14 12 10 8 10 9 11 11 11 11 9 9 9 10 12 13 13 12 11 14 21 22 23 24 19 13 11 11 11 10 7 7 8 8 9 12 11 11 12 12 17 19 19 14 10 10 9 8 8 8 9 6 4 6 9 11 12 12 11 11 12 13 12 12 12 8 8 9 5 6 6 6 8
11 11 12 11 9 8 9 10 11 11 12 13 12 12 12 11 9 8 9 9 10 8 8 8 8 8 9 11 13 13 11 12 18 21 23 23 18 11 10 9 10 10 9 8 7 9 9 10 13 13 14 15 22 21 21 15 10 10 10 8 9 10 10 7 7 6 5 4 5 5 6 9 8 6 5 11 14 9 9 8 5 6 7 6 6
10 8 8 7 7 8 8 10 11 12 13 12 11 11 9 8 9 10 9 9 9 8 8 8 10 9 8 9 10 11 10 9 12 20 20 22 19 12 10 11 11 11 11 12 10 8 9 10 12 14 15 19 21 21 21 18 11 9 8 9 9 12 6 6 7 6 6 7 5 5 6 3 3 2 3 4 5 3 5 6 6 7 7 6 6
7 8 7 7 7 9 9 11 13 12 11 11 10 9 9 10 9 10 10 8 8 8 10 9 9 9 9 9 9 10 10 10 11 19 21 23 22 16 11 13 11 10 9 9 9 10 9 9 9 14 18 19 20 21 20 19 14 9 10 10 12 6 7 6 7 9 6 5 4 4 4 2 2 1 2 2 3 3 2 3 6 7 7 7 7
7 7 7 8 8 9 10 10 11 11 9 8 9 10 8 9 10 10 9 9 11 11 10 9 9 9 8 8 9 9 8 12 9 15 18 19 13 13 9 9 9 11 11 9 8 7 10 10 9 14 19 18 19 18 18 17 17 9 10 13 12 11 7 6 6 6 5 5 5 5 4 4 4 2 2 3 4 5 4 5 5 5 6 7 9
7 7 8 8 9 9 9 10 10 8 8 9 11 10 8 9 9 9 10 9 10 10 10 9 8 8 6 6 6 6 7 8 13 12 18 18 16 15 11 8 10 8 10 10 10 8 6 6 8 15 18 16 16 17 15 16 14 11 14 16 14 14 8 6 6 6 6 6 6 6 5 5 5 5 5 5 6 6 6 6 7 7 7 7 8
6 7 8 9 9 9 9 9 9 8 9 9 9 10 9 9 9 9 10 10 9 9 8 7 7 7 7 6 5 4 4 5 8 11 12 15 16 18 16 15 13 6 5 6 6 6 6 6 7 13 13 13 14 14 14 14 10 14 16 15 14 11 7 7 6 6 6 6 6 5 5 5 5 5 6 7 7 8 8 7 7 8 8 7 6
6 8 8 8 8 7 7 8 8 8 9 10 10 9 8 9 9 8 9 9 9 9 8 8 9 8 8 8 5 4 5 5 6 10 15 14 21 18 17 16 15 12 8 5 7 6 8 11 14 14 12 13 14 14 14 17 18 13 14 15 12 7 7 6 7 6 6 7 6 5 5 6 8 8 9 8 7 4 3 5 6 6 4 2 1
7 8 7 6 6 5 6 5 6 7 8 8 9 9 10 10 9 8 9 9 9 9 8 8 8 8 8 8 8 7 7 7 8 9 12 13 15 19 20 20 18 17 12 9 11 13 14 14 15 15 14 13 11 9 9 10 15 15 14 12 7 7 7 7 6 7 7 6 6 6 6 6 7 9 8 6 6 7 6 6 5 5 5 5 4
7 6 6 5 3 3 5 4 4 5 6 6 7 7 7 8 8 8 9 9 8 8 8 9 9 9 9 9 9 9 9 9 9 10 10 11 11 13 14 14 16 15 10 9 12 11 13 12 9 10 8 14 14 11 9 9 9 9 8 7 7 7 7 7 8 7 6 6 6 6 6 8 6 5 5 6 6 5 5 5 5 6 5 5 5
7 6 5 4 4 4 4 5 6 4 5 7 8 7 7 8 9 9 10 10 9 9 9 10 10 11 10 8 6 6 7 7 8 10 10 11 10 10 11 11 11 10 9 8 8 8 8 8 10 9 8 9 8 6 6 6 7 6 6 6 6 6 6 6 6 6 6 6 5 5 3 4 5 5 4 4 4 4 5 6 6 6 5 4 3
5 3 3 3 4 3 4 4 5 5 4 3 3 5 9 9 9 8 7 8 9 10 10 9 8 8 8 10 10 9 9 11 12 10 10 11 12 12 13 12 11 10 10 12 9 8 8 8 8 8 9 9 8 7 7 6 6 6 6 6 6 6 6 6 6 6 5 5 6 6 6 5 4 4 4 4 4 4 4 5 5 5 4 4 8
3 4 3 4 3 3 3 3 3 4 5 5 4 1 4 2 4 7 6 6 8 8 9 9 9 8 8 8 9 13 14 10 12 17 17 17 15 13 10 11 12 10 14 19 12 10 10 10 10 10 9 9 9 9 8 8 7 7 7 7 7 6 6 5 5 5 5 6 6 6 5 5 5 5 5 5 4 4 5 7 6 5 5 6 6
4 5 4 4 4 4 4 4 3 3 3 4 4 4 3 4 6 5 4 5 7 7 9 7 9 10 9 8 8 6 4 12 19 19 19 20 19 18 17 18 19 19 21 16 12 11 10 10 9 9 9 9 9 9 9 8 8 8 7 7 7 7 7 6 6 5 6 6 5 5 5 5 5 5 5 5 5 5 4 4 4 5 5 6 6
6 6 5 4 4 4 4 4 4 5 3 2 3 4 4 4 3 5 7 7 8 9 10 10 11 12 12 9 8 6 10 15 19 20 20 21 21 21 21 21 21 23 24 18 11 9 9 10 9 9 9 9 9 8 8 8 8 8 7 8 8 7 7 7 6 6 6 6 6 5 5 4 4 4 5 5 6 6 6 6 5 6 5 5 6
5 4 5 5 5 6 6 6 5 5 5 5 4 4 5 5 6 5 4 6 8 8 9 10 12 12 13 13 13 11 10 12 18 20 22 22 22 22 22 22 22 23 22 12 10 9 8 9 9 8 9 9 8 8 8 7 8 8 8 8 7 7 6 6 5 6 6 6 6 6 4 3 3 5 5 5 6 5 5 6 5 5 5 5 5
5 5 5 6 6 5 6 6 6 5 5 4 4 4 3 4 5 6 6 5 4 5 8 11 12 13 13 13 14 12 12 14 16 19 21 21 21 21 20 16 20 24 17 9 9 9 8 8 8 8 8 7 7 7 7 7 7 7 6 6 6 6 6 4 5 6 5 6 6 5 4 4 5 5 5 5 5 5 5 6 5 5 5 6 6
5 6 9 7 6 6 6 5 6 6 6 6 5 5 4 3 4 5 5 5 5 5 4 4 8 10 7 8 11 12 13 15 16 17 19 20 20 20 17 11 12 12 9 5 7 7 8 9 8 8 8 8 8 8 8 7 7 7 7 7 6 6 6 6 6 6 6 6 5 5 5 5 6 6 6 6 5 5 5 6 6 6 6 6 5
6 5 6 6 5 5 5 5 5 5 6 5 5 5 4 5 5 4 4 4 5 5 4 3 3 5 8 7 10 12 14 15 16 17 18 20 20 22 12 9 9 9 8 7 7 6 6 7 7 7 7 7 7 7 7 7 7 7 6 7 6 6 6 6 6 6 6 6 6 5 5 6 6 7 6 6 7 7 6 6 6 5 5 5 5
6 6 6 6 6 6 6 6 5 6 5 5 5 5 5 5 4 5 4 6 6 5 6 6 6 6 5 4 8 11 14 15 16 17 18 19 22 12 7 10 10 9 8 8 7 7 7 7 7 7 7 7 7 7 6 7 6 6 6 6 6 6 6 7 7 7 6 6 6 6 6 7 7 6 6 6 6 5 5 5 5 6 6 7 6
6 7 7 7 7 8 8 8 8 9 7 7 6 6 7 6 6 6 5 6 6 7 7 6 5 7 8 6 6 6 10 15 18 15 15 16 12 6 6 6 8 9 9 7 7 7 7 6 7 7 7 7 7 7 7 7 7 6 6 6 6 6 8 7 8 7 7 7 7 7 7 7 6 6 6 6 6 5 5 5 5 5 5 7 6
5 6 9 10 8 7 6 7 7 7 7 7 7 7 6 7 7 7 6 6 7 6 5 6 7 7 7 7 7 8 10 9 9 9 10 9 7 6 5 6 6 6 6 7 7 7 6 6 6 6 6 6 7 7 7 6 6 6 6 6 6 6 7 6 6 6 6 7 7 6 6 6 6 6 6 6 6 6 6 6 6 6 6 6 6
5 4 6 8 5 6 5 6 7 7 6 8 8 8 8 8 9 8 8 8 8 8 8 8 8 7 7 8 8 9 9 8 8 7 8 7 7 6 5 5 5 5 6 6 6 6 6 5 6 6 6 6 7 7 7 7 6 6 6 6 6 6 6 6 7 7 7 7 6 6 6 6 6 6 6 6 6 6 6 6 6 6 6 6 6
4 4 4 6 5 5 4 5 5 7 6 6 6 6 7 6 6 5 7 7 7 7 6 4 4 3 3 3 8 7 3 4 5 5 4 5 5 6 6 5 5 5 5 5 5 5 5 5 5 6 5 6 6 6 6 6 6 6 6 6 6 6 6 6 6 6 7 7 6 6 6 6 6 7 7 7 6 6 5 5 5 5 6 5 5
3 3 4 4 4 5 5 4 3 4 5 4 6 6 4 5 6 6 5 6 4 5 5 4 4 4 4 6 6 8 5 4 4 4 4 4 4 4 4 4 3 4 4 4 5 5 5 5 5 5 5 5 5 5 5 5 5 5 5 5 6 6 6 6 6 6 7 6 6 7 7 7 7 6 6 5 6 6 5 5 5 5 5 5 4
1 2 2 2 4 5 5 4 4 5 5 5 4 4 3 4 5 4 5 4 5 5 6 5 4 4 4 5 5 6 4 3 3 4 4 4 4 4 5 4 3 4 4 4 3 3 5 5 5 4 4 4 4 4 5 4 4 4 4 4 4 4 5 4 4 5 5 5 6 6 7 6 6 6 6 6 6 6 6 5 4 5 5 4 4
3 3 2 3 2 3 3 4 5 4 4 5 5 4 4 4 5 5 5 5 5 5 5 5 5 5 4 3 4 4 4 4 4 4 4 4 5 5 6 5 5 5 5 5 4 3 5 5 5 4 4 4 3 4 4 3 3 4 4 4 4 4 4 5 5 5 6 6 6 6 6 6 6 6 6 6 5 5 5 4 4 4 5 4 3
5 5 5 5 4 4 4 4 5 5 4 4 5 5 4 5 5 5 5 5 4 5 5 5 5 6 4 5 5 5 5 5 4 5 5 5 5 5 4 5 5 5 5 5 4 5 5 5 5 5 5 4 4 5 5 4 4 4 3 4 5 5 6 6 6 5 5 5 6 6 6 6 6 5 6 5 4 4 4 4 4 4 3 3 4
4 5 5 6 5 4 4 5 3 5 5 5 6 6 5 5 5 5 4 5 4 6 5 5 5 5 5 5 5 4 5 5 5 5 6 5 5 5 4 5 5 5 5 4 4 5 5 5 5 6 6 5 4 4 4 4 5 4 3 3 2 3 3 3 3 5 5 5 6 5 6 4 5 5 6 5 4 4 5 3 3 4 5 5 5
4 5 5 5 6 4 4 3 5 5 5 5 6 6 6 5 6 5 4 5 6 4 5 5 5 5 5 5 5 5 4 5 5 5 5 5 5 5 5 5 6 5 5 5 4 5 5 5 4 5 5 5 5 5 4 3 3 3 3 3 3 3 3 3 3 3 4 4 5 5 5 6 6 4 5 4 4 4 4 5 4 4 4 4 4
5 4 6 5 6 6 6 6 7 6 6 5 6 5 5 5 5 5 4 5 5 4 5 4 4 4 4 4 4 4 4 4 4 4 4 4 4 4 5 5 5 5 5 4 4 3 4 3 4 4 5 5 4 4 4 4 3 2 2 2 2 3 3 3 4 3 4 5 5 5 6 6 5 5 4 5 5 5 4 5 3 2 4 4 5
4 4 4 5 6 6 5 5 4 6 5 5 6 6 5 6 5 5 5 5 5 4 4 4 4 4 4 4 4 4 4 3 4 4 5 5 4 4 4 4 4 4 4 3 3 3 3 3 3 3 3 3 4 4 3 2 2 1 1 1 2 5 5 4 3 3 4 5 4 4 4 4 5 4 4 4 5 4 5 3 3 3 2 3 3
6 6 6 6 6 5 4 4 6 5 4 5 5 6 6 5 5 4 5 5 5 4 4 4 4 3 4 5 3 4 4 4 4 4 4 3 3 3 3 3 3 2 3 2 3 2 2 2 2 2 2 2 3 2 2 2 2 2 2 2 5 5 6 7 6 5 4 4 4 4 5 5 4 4 4 4 4 4 4 4 4 5 4 4 5
6 7 6 7 6 6 6 5 5 4 4 4 5 5 5 5 4 4 4 4 4 3 3 3 3 3 3 2 2 3 3 3 3 3 3 3 3 3 2 2 2 1 1 1 1 2 2 2 3 3 2 2 2 3 2 3 3 3 4 6 7 7 7 7 4 6 6 4 3 4 5 5 4 4 3 4 4 4 6 5 5 5 5 5 5
Wind_Direction
206 211 194 205 200 205 207 203 204 201 203 200 200 202 197 191 191 193 179 194 183 187 193 194 193 194 192 192 190 185 180 177 180 170 170 169 171 169 169 171 166 170 164 169 169 159 160 161 165 162 157 149 150 143 141 145 138 134 136 132 140 160 146 144 154 165 72 89 127 169 177 158 186 198 198 209 223 225 213 220 219 219 237 244 247
213 209 204 204 205 205 208 209 204 203 205 205 206 202 198 194 189 181 192 191 183 190 194 192 192 192 192 195 193 188 185 180 177 173 173 171 172 170 174 177 175 168 170 170 172 168 161 159 160 159 169 150 147 152 151 150 150 143 151 147 156 174 172 125 157 150 180 118 94 82 158 183 183 184 194 195 224 215 224 228 220 213 231 235 238
215 209 206 207 210 204 202 206 206 206 204 209 210 203 199 195 187 188 190 186 188 191 191 189 191 190 193 194 192 190 187 182 180 177 177 175 174 178 179 178 178 175 176 175 173 166 162 162 162 158 155 151 157 157 158 156 156 153 158 156 159 174 179 147 134 154 161 193 162 164 182 192 192 193 202 208 209 201 213 224 222 227 229 233 236
211 210 213 217 211 205 204 200 205 208 208 207 210 205 197 195 189 193 189 179 187 192 187 188 188 189 192 194 194 190 186 186 182 185 182 179 180 180 181 183 181 180 179 176 173 169 168 162 166 166 161 155 155 156 161 156 160 159 156 166 159 169 170 147 147 134 161 158 203 184 192 176 224 212 196 203 205 210 208 231 227 237 244 241 231
206 210 211 217 216 216 212 201 204 209 211 207 208 202 201 196 193 195 184 186 188 184 190 186 186 189 193 194 193 193 190 183 183 186 186 185 183 182 183 184 183 183 183 179 176 170 168 171 168 167 162 155 156 162 164 165 164 159 163 162 161 157 151 154 153 134 146 176 171 212 175 202 192 196 183 186 226 224 235 224 231 233 239 241 241
208 207 205 211 217 219 219 211 210 208 209 210 205 200 199 199 195 198 191 187 187 192 187 188 189 191 194 195 194 195 192 189 187 187 185 184 184 184 185 186 187 185 184 180 173 174 174 171 167 168 166 160 166 169 166 165 158 162 161 162 154 153 155 158 146 147 157 163 157 163 189 178 177 207 193 198 190 218 238 242 248 241 231 256 245
205 207 207 209 215 220 217 218 213 208 208 209 204 200 200 198 195 199 193 191 191 192 192 190 194 191 193 191 193 193 195 196 194 191 189 187 184 181 183 188 188 188 185 178 177 177 176 171 170 172 172 170 163 169 166 160 164 169 171 163 160 157 163 167 162 159 165 150 178 185 182 219 178 216 226 200 211 202 223 247 261 232 214 216 252
202 209 209 215 219 222 216 215 217 215 208 208 207 203 199 199 200 195 190 199 198 196 193 191 190 191 193 195 194 190 191 195 198 193 191 190 186 186 184 183 182 183 180 184 185 182 179 176 174 176 175 172 168 166 161 164 160 166 167 158 161 162 168 165 162 166 163 174 184 201 208 200 254 218 109 133 222 275 223 207 240 253 238 228 222
202 209 211 218 225 224 209 209 211 211 207 206 208 207 201 198 195 195 198 203 203 201 195 190 186 192 197 197 193 192 192 195 195 194 190 190 189 185 183 182 181 181 185 186 187 186 182 179 179 179 177 169 168 163 167 162 157 162 167 164 165 168 166 168 170 162 165 170 211 195 191 220 232 198 201 197 205 226 186 187 236 247 243 264 263
205 212 215 222 228 220 208 205 204 203 205 207 207 206 202 197 196 200 203 203 202 200 198 194 193 195 195 195 195 194 198 199 198 196 193 187 185 183 182 183 182 184 183 183 185 187 187 183 185 180 171 166 165 165 164 166 168 166 167 168 167 169 171 170 174 178 169 180 210 194 200 227 228 214 211 225 227 227 184 189 226 257 179 254 257
212 214 221 225 225 209 206 209 199 204 210 204 204 201 203 198 200 205 206 203 203 200 194 196 202 200 197 196 197 199 202 202 196 197 195 190 185 186 183 183 180 182 185 181 183 184 187 187 181 177 169 165 167 166 166 170 172 168 161 169 169 168 167 174 188 174 177 198 198 183 207 228 236 213 219 227 215 212 217 193 224 237 231 249 276
215 219 225 226 218 212 213 206 203 210 204 208 203 199 198 202 206 207 205 204 204 194 198 204 201 199 200 200 202 203 205 199 195 198 194 192 190 187 184 179 177 182 187 187 185 183 181 177 177 175 174 169 167 167 170 173 171 170 172 172 177 179 174 171 176 175 185 193 197 209 200 222 235 203 225 201 229 216 218 203 209 214 233 233 238
219 225 226 222 221 217 210 206 211 209 209 206 199 195 199 206 210 208 208 204 192 199 205 200 204 200 198 201 205 203 206 197 195 197 201 198 191 183 188 187 184 184 184 187 185 183 178 174 171 178 178 172 167 166 165 170 174 172 176 183 186 187 195 199 181 182 180 187 196 208 206 212 213 232 201 190 163 199 200 210 219 223 222 232 239
217 226 226 224 222 216 209 208 211 212 206 200 196 200 201 209 211 209 206 198 203 205 202 204 203 203 204 204 204 203 203 196 198 199 197 195 193 191 194 189 186 183 184 186 186 184 179 174 171 174 174 171 169 163 162 165 166 167 170 179 190 205 207 209 204 182 172 190 190 206 223 181 211 204 186 176 165 199 192 226 212 228 227 233 241
222 226 228 229 222 215 211 211 213 209 203 200 200 204 206 211 208 206 203 204 203 204 202 203 206 207 206 204 203 203 205 197 199 200 200 197 196 195 200 195 189 185 186 185 183 182 181 178 176 173 171 172 171 165 161 163 164 171 174 181 195 198 206 215 213 204 198 205 202 216 220 192 211 169 171 187 192 197 192 210 208 218 222 46 30
229 229 232 228 218 215 212 216 215 209 204 202 205 209 210 209 208 204 204 207 209 205 208 205 207 207 205 204 206 209 208 202 201 198 196 196 195 196 199 201 196 186 183 181 180 184 184 179 174 171 170 171 169 162 158 153 161 168 175 187 197 202 218 222 209 204 207 205 212 219 217 178 172 178 182 183 194 197 178 58 82 118 208 292 259
232 230 232 229 220 215 212 214 215 209 203 204 209 211 210 210 209 195 203 205 205 207 209 207 206 204 205 205 206 211 209 205 203 201 199 196 191 190 186 189 192 192 186 174 174 176 182 179 175 167 166 170 165 162 157 149 163 169 176 190 199 207 230 228 218 226 229 222 222 225 224 214 214 211 209 203 192 176 140 182 232 165 200 259 266
238 236 236 228 223 216 212 210 213 207 202 209 210 213 210 206 204 193 202 201 208 209 208 209 206 206 206 207 205 206 209 203 203 204 202 198 190 188 185 184 179 175 177 171 157 160 177 182 176 166 163 165 164 166 162 156 166 172 176 188 199 216 233 223 214 231 236 240 239 236 233 233 229 231 229 230 228 185 166 214 208 152 210 222 257
243 235 235 231 226 213 209 209 211 207 208 211 207 208 204 203 195 187 203 202 208 200 202 207 207 208 211 212 210 209 209 207 202 201 203 201 193 184 179 180 176 173 157 155 161 164 171 179 176 171 169 162 168 168 166 163 168 172 181 185 209 219 226 191 201 210 210 211 232 225 238 236 235 226 224 232 237 211 186 205 167 162 211 223 237
245 245 248 236 220 211 206 208 210 208 212 209 205 207 195 186 188 191 198 198 200 196 197 202 205 211 205 211 213 211 207 205 204 205 201 199 193 181 179 178 178 170 166 164 166 174 169 170 179 175 163 162 166 168 170 170 171 177 173 196 208 229 205 178 196 193 199 199 210 202 215 202 197 180 183 219 238 232 181 191 178 186 207 228 217
259 249 243 234 220 213 209 208 211 213 209 205 198 194 187 190 186 189 192 192 193 194 196 199 203 206 200 203 208 211 204 196 199 199 198 197 190 176 185 184 169 162 166 168 173 168 171 178 180 174 161 163 166 169 170 178 180 179 189 205 212 204 139 175 191 184 194 193 199 196 185 157 177 150 172 199 231 256 245 196 182 190 199 215 234
253 246 236 229 224 217 213 214 212 211 201 186 186 194 191 183 186 186 188 189 193 197 194 197 202 205 202 199 202 205 197 190 184 196 199 200 184 169 175 183 166 161 160 169 175 180 179 175 176 172 162 160 163 166 174 182 191 191 206 211 210 186 162 177 166 168 174 171 182 183 177 184 196 204 218 222 229 233 230 241 233 209 206 206 214
248 241 234 228 222 217 214 209 208 199 192 188 187 190 179 180 182 181 184 189 194 197 196 195 197 201 193 195 196 197 192 192 183 186 191 191 170 173 163 157 163 163 168 173 179 177 174 169 167 168 164 158 163 172 179 193 200 207 208 209 203 192 166 151 151 155 162 177 176 189 186 183 184 201 208 221 231 225 229 232 236 242 243 236 231
247 240 236 231 224 218 211 207 202 191 187 181 186 183 180 181 179 184 183 185 189 193 195 189 191 192 190 185 184 174 172 172 180 177 184 184 182 179 175 174 176 177 178 175 163 162 155 159 157 164 160 160 172 181 191 201 205 208 202 198 194 190 171 160 160 172 175 177 187 187 191 195 188 198 212 215 214 216 216 222 230 237 239 246 249
246 243 239 233 225 221 204 199 192 186 184 177 181 182 180 175 181 188 182 188 189 192 191 186 190 188 184 185 167 144 160 164 169 174 174 172 181 169 167 163 172 163 166 162 158 155 146 146 151 158 162 174 185 196 205 210 210 198 194 188 188 183 178 170 172 164 182 194 194 194 195 194 196 203 207 207 210 199 204 230 230 235 244 241 164
247 243 244 235 230 210 200 200 188 182 176 180 182 179 177 181 184 183 185 192 191 190 186 183 189 183 186 180 177 170 162 159 165 168 172 171 178 177 172 174 176 175 166 153 148 142 146 151 158 165 176 184 191 198 204 204 208 200 196 190 177 178 170 169 170 179 196 191 192 202 205 194 202 211 203 187 177 197 198 210 204 230 213 223 235
245 245 236 236 232 215 197 192 183 179 175 170 170 171 175 181 182 184 187 189 189 189 183 183 185 185 185 183 174 168 169 172 172 174 174 178 181 180 177 181 175 165 157 153 152 154 157 162 170 173 171 188 191 195 189 189 192 190 182 179 173 175 177 180 182 184 189 190 200 204 205 202 187 164 179 179 189 190 178 191 196 218 205 218 208
241 239 226 210 204 200 197 189 179 184 190 176 169 168 176 180 183 187 188 188 186 190 188 190 191 191 188 176 159 160 175 179 179 174 177 174 172 170 174 173 175 175 165 159 154 148 148 156 164 168 172 179 180 170 170 173 176 170 172 166 166 169 178 181 184 188 194 189 197 199 175 146 172 185 161 164 179 169 169 180 196 212 201 167 182
246 237 215 189 201 197 187 182 187 179 184 199 199 186 178 181 186 196 203 193 191 186 188 196 195 191 178 173 169 176 180 191 196 183 169 166 167 170 175 177 176 177 170 152 140 142 147 158 160 163 169 170 167 171 169 168 176 176 172 174 171 172 176 178 191 197 190 185 202 202 197 178 173 150 156 153 166 164 167 182 210 195 200 182 210
217 218 201 195 192 176 174 179 174 169 170 167 146 40 5 174 202 188 185 177 189 198 189 194 187 173 176 190 184 182 192 189 157 167 171 171 171 171 165 163 170 165 166 161 153 160 170 169 173 171 171 171 175 178 179 176 176 181 187 183 181 184 188 195 196 197 191 198 200 198 190 173 172 163 164 179 179 172 192 191 202 189 183 213 216
214 209 197 201 192 181 171 164 164 153 160 157 152 145 111 41 65 102 135 135 145 158 182 169 159 176 173 175 188 189 123 149 168 175 175 180 179 177 175 177 175 172 167 158 166 173 172 176 177 175 177 177 181 185 178 178 183 182 186 188 186 191 196 192 203 192 198 199 195 189 178 172 170 164 170 182 182 187 187 212 167 186 201 208 226
210 206 193 191 173 162 147 147 141 134 131 128 140 147 131 110 45 112 135 144 150 162 172 167 173 180 186 177 167 171 174 175 177 180 180 182 185 186 186 182 176 173 173 159 162 176 177 177 178 182 177 182 189 178 179 183 182 181 178 184 191 186 187 195 190 187 194 191 193 194 186 177 165 164 175 182 186 188 189 183 188 193 212 216 225
211 197 179 165 162 157 157 157 155 150 153 151 159 153 153 150 135 118 130 148 160 160 167 173 179 183 185 184 182 178 174 177 182 184 186 188 187 188 186 182 176 174 169 168 179 174 180 182 183 183 182 189 181 179 182 180 178 181 183 185 184 183 178 188 179 180 188 190 181 190 181 176 172 171 181 183 187 196 189 192 200 198 200 214 233
196 190 180 172 165 171 168 163 156 154 148 152 150 151 158 153 145 138 132 124 124 166 181 185 187 187 185 183 185 181 175 173 173 177 179 179 179 178 177 176 179 181 180 176 176 182 177 183 182 183 185 179 172 171 175 180 178 176 175 176 172 164 180 177 173 191 190 195 187 196 183 186 181 179 193 187 197 191 195 197 187 192 207 210 220
183 184 175 172 174 173 168 163 157 149 151 155 154 157 156 155 151 150 153 148 144 137 118 157 175 171 168 172 173 170 167 166 166 167 170 171 170 167 160 161 172 184 178 166 180 177 178 182 180 179 174 176 177 175 177 173 169 169 168 167 171 180 186 179 190 191 193 194 187 190 188 189 197 193 187 190 191 198 203 197 197 199 203 216 218
179 174 172 169 156 153 155 156 151 155 158 156 153 150 148 154 159 156 136 135 138 129 112 95 80 111 124 131 145 145 149 153 158 162 163 165 165 161 158 165 166 173 171 175 175 174 170 174 170 170 169 170 166 170 169 165 166 162 164 167 181 188 188 189 193 192 195 187 194 191 187 194 192 194 190 192 199 205 206 202 201 204 204 209 211
180 177 173 171 160 154 154 150 149 149 148 147 152 151 154 160 161 158 157 158 152 148 143 137 121 100 78 111 133 138 143 149 154 158 161 164 166 163 161 164 167 163 170 173 169 166 171 174 168 165 167 167 166 162 156 160 161 168 178 182 186 185 195 192 192 188 184 188 194 190 186 196 194 190 180 195 208 202 201 197 202 207 207 219 221
201 188 179 167 160 160 159 166 162 154 156 160 164 160 160 166 168 166 165 159 155 151 152 149 143 144 146 151 146 144 147 146 147 150 158 162 165 153 161 163 165 170 169 170 171 167 166 163 164 165 163 159 159 162 163 168 175 179 185 186 189 193 197 190 191 184 188 187 190 193 191 194 188 184 181 189 200 198 197 196 199 214 223 227 221
221 198 178 170 171 165 163 155 154 156 158 163 164 163 168 169 169 172 168 160 160 162 162 158 160 162 160 155 151 156 147 153 162 167 169 174 165 158 156 161 162 159 159 162 161 163 161 164 160 154 157 165 166 172 173 177 178 183 187 186 190 196 201 178 185 186 186 192 197 189 185 190 184 188 187 188 198 197 200 203 204 206 211 219 222
210 202 183 171 166 170 163 163 160 163 167 167 173 173 170 178 181 178 170 166 171 172 174 172 175 173 167 165 162 164 167 167 167 169 168 170 161 157 150 150 156 157 156 157 159 163 162 162 161 166 170 171 175 177 177 177 182 185 187 188 187 194 198 186 185 183 191 193 187 184 184 189 192 187 191 193 199 198 197 205 210 209 214 214 226
211 194 184 183 164 158 153 160 172 173 171 172 169 175 184 180 177 173 172 172 169 171 173 173 148 119 131 159 164 165 129 150 151 154 160 158 148 154 160 156 153 151 142 147 151 151 156 157 164 170 169 169 172 172 174 176 179 180 187 188 190 195 194 194 185 187 190 186 189 186 191 190 190 184 195 208 198 192 201 199 205 210 215 220 220
192 185 179 168 154 154 158 167 161 151 154 158 166 173 166 168 165 164 164 160 154 156 149 122 108 109 148 156 149 146 115 94 116 123 115 117 120 102 96 89 81 108 125 132 141 143 135 137 140 145 149 144 144 143 141 150 164 176 181 185 191 191 191 192 186 185 184 188 191 192 192 191 192 198 202 187 182 182 186 201 205 207 210 216 220
204 162 145 149 156 158 160 150 136 145 145 147 136 113 122 129 138 138 135 134 139 140 132 122 115 123 152 161 153 127 87 88 96 106 97 86 80 78 69 66 65 51 54 61 43 96 124 125 119 110 117 120 118 132 137 141 139 139 142 159 163 168 175 168 164 174 173 177 184 184 183 184 183 187 190 186 181 178 183 191 197 198 209 209 212
120 102 93 78 68 66 75 107 114 106 103 102 95 92 96 96 100 111 117 116 116 112 115 121 126 132 139 146 120 82 97 93 100 102 105 95 90 85 79 83 84 73 57 59 50 62 99 107 104 80 67 66 68 77 83 86 104 132 148 149 160 166 171 175 180 181 180 179 179 178 180 183 180 174 179 177 164 173 181 176 192 199 202 209 205
118 116 116 105 85 84 70 68 88 101 103 101 92 84 81 93 101 94 102 107 102 102 108 119 128 126 117 107 109 113 107 110 111 108 103 110 106 105 101 90 85 86 79 67 56 70 84 99 108 110 102 79 72 81 85 78 77 88 113 142 164 176 188 191 199 186 168 168 173 171 174 172 175 171 174 168 166 167 179 185 189 191 199 203 196
113 117 114 114 110 106 104 101 98 100 100 102 105 92 82 80 78 81 88 92 102 116 121 125 123 118 118 114 113 112 117 110 106 108 109 104 110 107 100 98 92 86 83 78 68 73 82 95 110 116 121 118 103 92 86 86 88 92 95 109 143 174 191 188 156 145 156 161 165 171 166 162 162 166 166 165 164 161 177 184 180 189 195 203 208
90 95 87 97 101 100 91 92 91 88 90 84 86 90 91 85 89 93 93 105 115 119 120 126 122 120 113 114 113 114 116 113 115 112 111 114 115 118 111 104 99 99 92 84 81 89 93 97 110 129 134 140 131 123 115 103 101 105 114 117 126 136 151 156 153 142 144 155 148 143 157 159 167 165 171 157 166 176 175 187 188 195 198 198 205
43 82 94 98 98 94 88 82 81 76 78 75 76 79 81 84 86 87 95 98 99 105 105 99 97 99 99 94 94 100 100 101 97 102 108 108 107 108 110 112 113 117 110 99 94 102 110 126 132 134 139 140 139 137 136 124 114 115 117 124 143 144 142 123 110 108 125 130 136 146 149 157 165 169 171 169 180 176 177 197 190 184 191 200 208
43 43 61 78 88 89 96 88 94 97 96 98 95 86 80 82 79 79 79 81 86 84 94 101 99 90 89 89 94 92 97 101 106 104 99 86 97 101 108 113 112 114 117 128 142 143 149 147 147 140 138 139 133 137 140 136 149 142 165 175 168 166 160 145 139 155 144 129 124 127 132 142 160 175 175 175 179 174 179 182 175 193 193 199 203
47 51 60 62 69 60 71 82 91 86 88 91 90 96 91 86 80 83 86 86 80 77 76 80 86 86 98 101 106 111 108 112 112 114 105 104 99 103 100 107 118 130 133 146 146 149 141 140 137 130 131 126 133 130 138 153 166 179 184 188 202 193 180 172 167 162 148 141 143 147 149 154 151 160 169 171 168 167 178 190 192 192 197 200 211
55 56 58 62 58 59 63 56 53 57 63 76 79 85 90 86 85 81 78 78 79 73 67 70 75 73 70 71 68 81 79 72 70 87 97 97 95 94 104 108 121 108 96 101 120 132 156 154 158 157 149 155 157 167 173 183 186 188 198 209 212 216 203 181 172 177 154 144 137 134 146 156 162 168 177 171 164 172 191 187 190 193 199 203 208